Weather observations for the past three days for
Jerome County Airport
Imperial (Metric)
Date Time (mdt) Wind (mph) Vis. (mi.) Weather Sky Cond. Temperature (ºF) Relative Humidity Wind Chill (°F) Heat Index (°F) Pressure Precipitation (in)
Air Dwpt 6 hour altimeter (in) sea level (mb) 1 hr 3 hr 6 hr
Max. Min.
22 03:53 SE 7 10.00 Fair CLR 64.9 32 29% 30 1011.4
22 02:53 SE 7 10.00 Fair CLR 63 35.1 35% 29.98 1011.2
22 01:53 SE 8 10.00 Fair CLR 64 35.1 34% 29.98 1011.1
22 00:53 S 3 10.00 Fair CLR 68 36 31% 29.97 1011.0
21 23:53 S 3 10.00 Fair CLR 70 35.1 88 66 28% 29.97 1010.7
21 22:53 NW 3 10.00 Fair CLR 73 36 26% 29.96 1010.4
21 21:53 W 5 10.00 Fair CLR 79 33.1 19% 78 29.94 1009.7
21 20:53 W 5 10.00 Fair CLR 82 34 18% 80 29.92 1009.2
21 19:53 W 8 10.00 Fair CLR 82.9 37.9 20% 81 29.91 1008.8
21 18:53 W 12 10.00 Fair CLR 87.1 30.9 13% 83 29.91 1008.9
21 17:53 W 9 10.00 Fair CLR 88 28 89.1 73.9 11% 84 29.92 1009.3
21 16:53 W 10 10.00 Fair CLR 89.1 28.9 11% 85 29.93 1009.6
21 15:53 Vrbl 7 10.00 Fair CLR 87.1 35.1 16% 84 29.95 1010.0
21 14:53 Vrbl 6 10.00 Fair CLR 84.9 39 20% 82 29.96 1010.4
21 13:53 S 5 10.00 Fair CLR 81 42.1 25% 79 29.98 1010.9
21 12:53 SW 6 10.00 Fair CLR 78.1 34 20% 77 29.99 1011.8
21 11:53 Calm 10.00 Fair CLR 75.9 39 75.9 52 26% 77 29.99 1011.9
21 10:53 SW 7 10.00 Fair CLR 70 37 30% 30 1012.5
21 09:53 Vrbl 5 10.00 Fair CLR 68 37 32% 30.01 1012.5
21 08:53 Vrbl 3 10.00 Fair CLR 63 34 34% 30 1012.3
21 07:53 SE 6 10.00 Fair CLR 62.1 36 38% 29.99 1011.5
21 06:53 SE 3 10.00 Fair CLR 57 33.1 41% 29.98 1011.4
21 05:53 Calm 10.00 Fair CLR 54 33.1 68 51.1 45% 29.96 1010.8
21 04:53 Calm 10.00 Fair CLR 55 32 42% 29.95 1010.6
21 03:53 S 3 10.00 Fair CLR 57.9 33.1 39% 29.95 1010.0
21 02:53 S 3 10.00 Fair CLR 62.1 35.1 37% 29.94 1009.7
21 01:53 S 7 10.00 Fair CLR 66 36 33% 29.93 1009.4
21 00:53 SE 6 10.00 Fair CLR 63 36 37% 29.93 1009.8
20 23:53 E 6 10.00 Fair CLR 63 35.1 86 62.1 35% 29.94 1010.1
20 22:53 Calm 10.00 Fair CLR 66 37 34% 29.93 1010.1
20 21:53 NW 3 10.00 Fair CLR 72 35.1 26% 29.92 1009.5
20 20:53 NW 6 10.00 Fair CLR 73.9 39 28% 29.91 1009.3
20 19:53 NW 6 6.00 Fair with Haze CLR 82 37.9 21% 80 29.91 1009.1
20 18:53 SE 5 10.00 Fair CLR 84 30.9 15% 81 29.91 1009.2
20 17:53 SE 8 10.00 Fair CLR 86 32 86 75.9 14% 83 29.92 1009.6
20 16:53 SE 13 10.00 Fair CLR 82.9 36 19% 80 29.93 1010.2
20 15:53 E 10 10.00 Fair CLR 86 27 12% 83 29.95 1010.5
20 14:53 SE 10 10.00 Fair CLR 82.9 25 12% 80 29.98 1011.6
20 13:53 E 15 10.00 Fair CLR 82 32 16% 80 30 1012.4
20 12:53 SE 17 G 25 10.00 Fair CLR 79 33.1 19% 78 30.02 1013.0
20 11:53 SE 14 10.00 Fair CLR 75.9 34 75.9 52 22% 77 30.03 1013.4
20 10:53 E 16 10.00 Fair CLR 71.1 35.1 27% 30.04 1014.4
20 09:53 E 15 10.00 Fair CLR 64.9 34 32% 30.05 1015.0
20 08:53 E 15 10.00 Fair CLR 61 28.9 30% 30.05 1014.7
20 07:53 E 16 10.00 Fair CLR 55.9 27 33% 30.05 1014.6
20 06:53 E 16 10.00 Fair CLR 52 21.9 31% 30.04 1014.5
20 05:53 NE 17 10.00 Fair CLR 52 21.9 61 51.1 31% 30.04 1014.2
20 04:53 NE 16 10.00 Fair CLR 52 23 32% 30.03 1014.0
20 03:53 NE 15 10.00 Fair CLR 53.1 24.1 32% 30.03 1014.0
20 02:53 NE 16 10.00 Fair CLR 54 25 33% 30.03 1013.9
20 01:53 NE 14 10.00 Fair CLR 54 28.9 38% 30.03 1014.0
20 00:53 E 10 10.00 Fair CLR 59 24.1 26% 30.03 1013.9
19 23:53 E 12 10.00 Fair CLR 61 23 75.9 55.9 23% 30.03 1013.9
19 22:53 NE 7 10.00 Fair CLR 55.9 39 53% 30.02 1014.0
19 21:53 N 5 10.00 Fair CLR 61 39 44% 30.01 1013.7
19 20:53 N 3 10.00 Fair CLR 68 42.1 39% 30 1013.4
19 19:53 NW 6 10.00 Fair CLR 73.9 21.9 14% 30 1013.3
19 18:53 NW 5 10.00 Fair CLR 75.9 21.9 13% 76 30 1013.7
19 17:53 Vrbl 3 10.00 Fair CLR 75.9 19.9 75.9 68 12% 76 30.01 1013.7
19 16:53 NW 6 10.00 Fair CLR 75 21 13% 75 30.02 1014.1
19 15:53 NE 8 10.00 Fair CLR 75 26.1 16% 76 30.03 1014.7
19 14:53 W 6 10.00 Fair CLR 73 14 10% 30.05 1015.0
19 13:53 Vrbl 3 10.00 Fair CLR 73 21 14% 30.06 1015.4
19 12:53 Vrbl 3 G 22 10.00 Fair CLR 71.1 21.9 16% 30.07 1015.8
19 11:53 SE 9 10.00 Fair CLR 69.1 25 70 39 19% 30.08 1016.0
19 10:53 E 13 10.00 Fair CLR 66.9 28.9 24% 30.08 1016.6
19 09:53 E 18 10.00 Fair CLR 60.1 30.9 33% 30.08 1017.1
19 08:53 E 16 G 24 10.00 Fair CLR 54 30.9 42% 30.07 1016.5
19 07:53 NE 20 10.00 Fair CLR 48 28 46% 42 30.07 1016.5
19 06:53 NE 15 10.00 Fair CLR 41 26.1 55% 34 30.07 1016.9
19 05:53 E 14 10.00 Fair CLR 46 30 53.1 45 54% 40 30.05 1015.8
19 04:53 E 9 10.00 Fair CLR 46.9 28 48% 43 30.04 1015.5
Date Time (mdt) Wind (mph) Vis. (mi.) Weather Sky Cond. Air Dwpt Max. Min. Relative Humidity Wind Chill (°F) Heat Index (°F) altimeter (in) sea level (mb) 1 hr 3 hr 6 hr
6 hour
Temperature (ºF) Pressure Precipitation (in)